CW9669 Weather Reports


Display with metric or nautical units.
time (UTC)temp
F
wind
direction
speed
MPH
gust
MPH
rain 1hr
in
rain 24hr
in
rain mn
in
humidity
%
barometer
mb
20260507055725 53 313 0.0 1.0 0.00 0.00 0.00 85 1020.1
20260507054725 53 296 0.0 1.0 0.00 0.00 0.00 84 1020.0
20260507054217 53 260 0.0 1.0 0.00 0.00 0.00 84 1020.0
20260507052725 54 315 0.0 0.0 0.00 0.00 0.00 83 1019.9
20260507051726 54 315 0.0 2.0 0.00 0.00 0.00 83 1020.0
20260507050728 55 278 0.0 2.0 0.00 0.00 0.00 82 1019.9
20260507045725 55 292 0.0 1.0 0.00 0.00 0.00 81 1019.9
20260507044730 55 300 1.0 3.0 0.00 0.00 0.00 81 1019.8
20260507043725 56 310 1.0 4.0 0.00 0.00 0.00 80 1019.5
20260507042726 56 281 0.0 3.0 0.00 0.00 0.00 80 1019.6
20260507041726 57 295 0.0 3.0 0.00 0.00 0.00 79 1019.5
20260507040725 57 350 1.0 4.0 0.00 0.00 0.00 79 1019.4
20260507035726 58 281 0.0 3.0 0.00 0.00 0.00 78 1019.3
20260507034726 58 304 2.0 7.0 0.00 0.00 0.00 77 1019.1
20260507033727 59 289 2.0 11.0 0.00 0.00 0.00 76 1019.1
20260507032720 59 293 2.0 8.0 0.00 0.00 0.00 75 1019.1
20260507031717 60 317 2.0 8.0 0.00 0.00 0.00 74 1018.8
20260507031159 61 284 3.0 9.0 0.00 0.00 0.00 73 1018.7
20260507025719 62 300 2.0 8.0 0.00 0.00 0.00 72 1018.6
20260507025205 62 297 1.0 8.0 0.00 0.00 0.00 71 1018.5
20260507023721 63 286 2.0 8.0 0.00 0.00 0.00 70 1018.4
20260507022717 64 277 3.0 10.0 0.00 0.00 0.00 69 1018.4
20260507021717 65 301 1.0 4.0 0.00 0.00 0.00 68 1018.4
20260507020720 65 309 2.0 10.0 0.00 0.00 0.00 67 1018.3
20260507015717 66 268 2.0 6.0 0.00 0.00 0.00 67 1018.4
20260507014717 67 274 2.0 7.0 0.00 0.00 0.00 65 1018.4
20260507013717 68 297 2.0 6.0 0.00 0.00 0.00 64 1018.4
20260507012717 69 249 2.0 7.0 0.00 0.00 0.00 63 1018.3
20260507012642 69 335 2.0 7.0 0.00 0.00 0.00 62 1018.2
20260507010717 69 267 3.0 7.0 0.00 0.00 0.00 62 1018.2
20260507010637 70 284 2.0 8.0 0.00 0.00 0.00 61 1018.2
20260507005159 71 267 2.0 7.0 0.00 0.00 0.00 60 1018.1
20260507003717 71 150 3.0 8.0 0.00 0.00 0.00 60 1018.1
20260507003200 72 294 2.0 8.0 0.00 0.00 0.00 60 1018.0
20260507001717 72 311 1.0 5.0 0.00 0.00 0.00 59 1018.0
20260507001155 72 330 2.0 6.0 0.00 0.00 0.00 58 1018.0
20260506235718 71 289 3.0 9.0 0.00 0.00 0.00 58 1018.0
20260506234717 71 302 3.0 8.0 0.00 0.00 0.00 60 1018.0
20260506233717 71 261 2.0 7.0 0.00 0.00 0.00 58 1018.0
20260506232721 71 244 2.0 10.0 0.00 0.00 0.00 58 1018.0
20260506231718 71 322 2.0 8.0 0.00 0.00 0.00 58 1018.0
20260506230716 71 296 2.0 8.0 0.00 0.00 0.00 57 1018.1
20260506225716 71 283 2.0 8.0 0.00 0.00 0.00 59 1018.1
20260506224715 71 303 2.0 8.0 0.00 0.00 0.00 60 1018.4
20260506223716 70 275 3.0 10.0 0.00 0.00 0.00 63 1018.4
20260506222715 70 263 2.0 9.0 0.00 0.00 0.00 62 1018.6
20260506221716 70 273 1.0 5.0 0.00 0.00 0.00 62 1018.6
20260506220719 70 273 1.0 6.0 0.00 0.00 0.00 63 1018.6
20260506215716 69 209 2.0 8.0 0.00 0.00 0.00 64 1018.9
20260506214715 68 294 2.0 7.0 0.00 0.00 0.00 64 1018.9
20260506213715 68 281 3.0 8.0 0.00 0.00 0.00 66 1018.9
20260506212713 67 35 2.0 8.0 0.00 0.00 0.00 66 1019.1
20260506212154 67 290 3.0 12.0 0.00 0.00 0.00 67 1019.2
20260506210716 67 304 2.0 5.0 0.00 0.00 0.00 67 1019.2
20260506205714 67 341 2.0 6.0 0.00 0.00 0.00 69 1019.2
20260506204714 66 309 1.0 5.0 0.00 0.00 0.00 71 1019.2
20260506203713 64 342 2.0 7.0 0.00 0.00 0.00 72 1019.3
20260506202707 64 318 2.0 5.0 0.00 0.00 0.00 73 1019.4
20260506201705 64 219 3.0 10.0 0.00 0.00 0.00 75 1019.5
20260506200705 64 282 2.0 5.0 0.00 0.00 0.00 74 1019.6
20260506195710 64 313 2.0 5.0 0.00 0.00 0.00 74 1019.7
20260506194709 63 13 2.0 8.0 0.00 0.00 0.00 75 1019.7
20260506193707 62 229 2.0 6.0 0.00 0.00 0.00 76 1019.7
20260506193158 62 312 1.0 8.0 0.00 0.00 0.00 76 1019.7
20260506191706 62 298 1.0 4.0 0.00 0.00 0.00 77 1019.6
20260506191159 62 302 1.0 5.0 0.00 0.00 0.00 77 1019.7
20260506185707 61 296 1.0 3.0 0.00 0.00 0.00 79 1019.8
20260506184703 60 292 2.0 4.0 0.00 0.00 0.00 78 1019.9
20260506183705 61 345 1.0 3.0 0.00 0.00 0.00 77 1019.8
20260506182708 61 151 1.0 4.0 0.00 0.00 0.00 78 1019.7
20260506181705 60 198 0.0 3.0 0.00 0.00 0.00 80 1019.7
20260506180717 59 284 0.0 2.0 0.00 0.00 0.00 80 1019.9
20260506175704 59 273 0.0 2.0 0.00 0.00 0.00 81 1020.0
20260506174704 59 228 0.0 2.0 0.00 0.00 0.00 80 1019.8
20260506174148 58 175 1.0 4.0 0.00 0.00 0.00 82 1019.6
20260506173145 58 158 1.0 3.0 0.00 0.00 0.00 82 1020.0
20260506171657 58 269 0.0 2.0 0.00 0.00 0.00 83 1019.8
20260506170658 57 191 0.0 1.0 0.00 0.00 0.00 84 1019.9
20260506165658 57 144 0.0 2.0 0.00 0.00 0.00 84 1019.6
20260506164700 56 205 0.0 2.0 0.00 0.00 0.00 85 1019.9
20260506163657 56 299 0.0 2.0 0.00 0.00 0.00 86 1020.0
20260506162658 55 298 0.0 1.0 0.00 0.00 0.00 87 1020.0
20260506161657 55 311 1.0 2.0 0.00 0.00 0.00 87 1020.0
20260506160651 55 325 1.0 3.0 0.00 0.00 0.00 87 1020.0
20260506160130 54 300 0.0 3.0 0.00 0.00 0.00 87 1020.0
20260506154647 54 294 0.0 1.0 0.00 0.00 0.00 87 1019.9
20260506153646 54 292 0.0 1.0 0.00 0.00 0.00 88 1019.9
20260506152646 54 200 0.0 1.0 0.00 0.00 0.00 88 1019.7
20260506151646 53 221 0.0 2.0 0.00 0.00 0.00 89 1019.7
20260506150644 53 236 0.0 1.0 0.00 0.00 0.00 89 1019.7
20260506150629 53 234 1.0 3.0 0.00 0.00 0.00 90 1019.8
20260506144643 53 201 1.0 3.0 0.00 0.00 0.00 90 1019.4
20260506144121 53 175 0.0 3.0 0.00 0.00 0.00 89 1019.3
20260506142643 53 140 0.0 0.0 0.00 0.00 0.00 89 1019.3
20260506141645 53 221 0.0 2.0 0.00 0.00 0.00 89 1019.5
20260506140644 53 213 0.0 1.0 0.00 0.00 0.00 89 1019.5
20260506135643 52 256 0.0 1.0 0.00 0.00 0.00 89 1019.4
20260506134650 52 255 0.0 0.0 0.00 0.00 0.00 90 1019.2
20260506133644 52 255 0.0 1.0 0.00 0.00 0.00 90 1019.2
20260506132644 52 208 0.0 1.0 0.00 0.00 0.00 90 1019.1
20260506131643 52 196 0.0 2.0 0.00 0.00 0.00 89 1019.0
20260506130644 52 291 0.0 2.0 0.00 0.00 0.00 90 1019.0
20260506130154 52 309 0.0 0.0 0.00 0.00 0.00 90 1018.9
20260506124645 52 299 0.0 2.0 0.00 0.00 0.00 90 1018.8
20260506123643 52 328 1.0 3.0 0.00 0.00 0.00 90 1018.7
20260506122646 52 275 0.0 3.0 0.00 0.00 0.00 92 1018.5
20260506121647 52 287 0.0 1.0 0.00 0.00 0.00 93 1018.4
20260506120645 52 346 0.0 0.0 0.00 0.00 0.00 94 1018.4
20260506120132 52 346 0.0 0.0 0.00 0.00 0.00 95 1018.1
20260506114643 52 346 0.0 0.0 0.00 0.00 0.00 95 1018.1
20260506113643 52 346 0.0 0.0 0.00 0.00 0.00 95 1017.7
20260506112646 52 346 0.0 0.0 0.00 0.00 0.00 95 1017.7
20260506111645 52 346 0.0 0.0 0.00 0.00 0.00 95 1017.5
20260506110642 51 346 0.0 0.0 0.00 0.00 0.00 95 1017.5
20260506105644 51 346 0.0 0.0 0.00 0.00 0.00 95 1017.3
20260506105138 51 346 0.0 0.0 0.00 0.00 0.00 95 1017.2
20260506103645 50 346 0.0 0.0 0.00 0.00 0.00 95 1017.2
20260506102646 50 346 0.0 0.0 0.00 0.00 0.00 95 1017.1
20260506101646 50 346 0.0 0.0 0.00 0.00 0.00 94 1017.1
20260506100643 50 346 0.0 0.0 0.00 0.00 0.00 94 1017.0
20260506095642 50 346 0.0 0.0 0.00 0.00 0.00 94 1016.9
20260506094644 51 346 0.0 0.0 0.00 0.00 0.00 93 1016.9
20260506093643 51 346 0.0 0.0 0.00 0.00 0.00 94 1016.9
20260506093122 51 346 0.0 0.0 0.00 0.00 0.00 93 1016.8
20260506091644 52 346 0.0 0.0 0.00 0.00 0.00 93 1016.7
20260506090641 52 346 0.0 0.0 0.00 0.00 0.00 93 1016.5
20260506090131 52 346 0.0 0.0 0.00 0.00 0.00 92 1016.5
20260506084639 52 346 0.0 0.0 0.00 0.00 0.00 92 1016.5
20260506083641 53 346 0.0 0.0 0.00 0.00 0.00 92 1016.4
20260506082639 53 346 0.0 0.0 0.00 0.00 0.00 91 1016.4
20260506081639 53 346 0.0 0.0 0.00 0.00 0.00 91 1016.3
20260506080640 54 346 0.0 0.0 0.00 0.00 0.00 90 1016.4
20260506071643 57 346 0.0 2.0 0.00 0.00 0.00 87 1016.2
20260506071050 57 306 1.0 2.0 0.00 0.00 0.00 87 1016.0
20260506061637 57 238 0.0 1.0 0.00 0.00 0.00 88 1015.7